Regional Weather Roundup
Issued by NWS

Home | Current Version | Previous Version | Graphics & Text | Print | Product List | Glossary On
Versions: 1 2 3 4 5 6 7 8 9 10 11 12 13 14 15 16 17 18 19 20 21 22 23 24 25 26 27 28 29 30 31 32 33 34 35 36 37 38 39 40 41 42 43 44 45 46 47 48 49 50
000
ASUS43 KOAX 220602
RWRNE

WEATHER ROUNDUP FOR NEBRASKA
NATIONAL WEATHER SERVICE OMAHA NE
1200 AM CST WED FEB 22 2017

NOTES: SATELLITE DATA IS BEING USED TO AUGMENT CLOUD COVER ABOVE
       12000 FEET.
       "FAIR" INDICATES FEW OR NO CLOUDS BELOW 12,000 FEET WITH NO
       SIGNIFICANT WEATHER AND/OR OBSTRUCTIONS TO VISIBILITY.

  * THESE STATIONS DO NOT REPORT WEATHER SUCH AS RAIN...SNOW OR FOG.

NEZ001>004-019>022-054>056-220700-
NEBRASKA PANHANDLE

CITY           SKY/WX    TMP DP  RH WIND       PRES   REMARKS
SCOTTSBLUFF    CLEAR     51  21  30 NW10      29.76F
6HR MIN TEMP:  46; 6HR MAX TEMP:  68;

ALLIANCE       CLEAR     40  22  48 SW13      29.75F WCI  32
6HR MIN TEMP:  36; 6HR MAX TEMP:  66;

CHADRON        CLEAR     41  34  76 S8        29.74F
6HR MIN TEMP:  41; 6HR MAX TEMP:  65;

KIMBALL        CLEAR     51  22  31 SW18      29.81F
SIDNEY         CLEAR     49  16  26 W12       29.78F
6HR MIN TEMP:  49; 6HR MAX TEMP:  67;

$$

NEZ057>060-069>072-079>082-220700-
SOUTHWEST NEBRASKA

CITY           SKY/WX    TMP DP  RH WIND       PRES   REMARKS
NORTH PLATTE   CLEAR     34  26  72 CALM      29.78F
6HR MIN TEMP:  34; 6HR MAX TEMP:  71;

IMPERIAL       PTCLDY    43  22  43 NW5       29.79F
6HR MIN TEMP:  41; 6HR MAX TEMP:  70;

LEXINGTON      CLOUDY    47  28  47 CALM      29.76F
MCCOOK         CLOUDY    59  26  28 SW12      29.77F
6HR MIN TEMP:  52; 6HR MAX TEMP:  72;

OGALLALA       CLOUDY    34  21  58 SW3       29.79S
$$

NEZ005>010-023>029-035>040-094-220700-
NORTH CENTRAL NEBRASKA

CITY           SKY/WX    TMP DP  RH WIND       PRES   REMARKS
VALENTINE      CLEAR     40  28  62 W6        29.74R
6HR MIN TEMP:  39; 6HR MAX TEMP:  69;

AINSWORTH      CLEAR     46  31  56 NW6       29.72S
BROKEN BOW     PTCLDY    41  31  67 N3        29.77S
6HR MIN TEMP:  37; 6HR MAX TEMP:  70;

O`NEILL        CLEAR     49  32  51 SW7       29.70F
ORD            CLEAR     42  30  62 S6        29.74S
6HR MIN TEMP:  40; 6HR MAX TEMP:  71;

THEDFORD       CLEAR     51  28  40 SW7       29.77R
$$

NEZ041-046>049-061>064-073>077-083>087-220700-
SOUTH CENTRAL NEBRASKA

CITY           SKY/WX    TMP DP  RH WIND       PRES   REMARKS
GRAND ISLAND   CLEAR     53  32  44 SW14      29.76F
6HR MIN TEMP:  52; 6HR MAX TEMP:  69;

AURORA         CLEAR     48  30  49 SW10      29.76S
HASTINGS       CLEAR     51  28  41 SW3       29.77F
6HR MIN TEMP:  51; 6HR MAX TEMP:  71;

HEBRON         CLEAR     53  32  44 S17       29.77F
HOLDREGE       CLOUDY    52  25  34 SW7       29.76F
KEARNEY *      CLEAR     52  27  37 CALM      29.78F
YORK           CLEAR     48  32  53 S10       29.76S
$$

NEZ011>018-030>034-042>045-220700-
NORTHEAST NEBRASKA

CITY           SKY/WX    TMP DP  RH WIND       PRES   REMARKS
NORFOLK        CLEAR     49  34  56 SW7       29.70F
6HR MIN TEMP:  49; 6HR MAX TEMP:  65;

ALBION         CLEAR     45  32  59 SE3       29.71F
BLAIR          CLEAR     52  37  56 S12       29.74S
FREMONT        CLEAR     56  33  42 S15       29.73F
TEKAMAH        CLEAR     50  37  61 S10       29.73S
6HR MIN TEMP:  45; 6HR MAX TEMP:  61;

WAYNE          CLEAR     49  36  59 SW12      29.69F
$$

NEZ050>053-065>068-078-088>093-220700-
SOUTHEAST NEBRASKA

CITY           SKY/WX    TMP DP  RH WIND       PRES   REMARKS
LINCOLN        PTCLDY    54  35  48 S12       29.77F
6HR MIN TEMP:  54; 6HR MAX TEMP:  65;

OMAHA EPPLEY   CLEAR     47  36  65 SE14      29.76F
6HR MIN TEMP:  46; 6HR MAX TEMP:  67;

BEATRICE       CLEAR     54  36  50 S13       29.78F
FALLS CITY     PTCLDY    53  33  46 S6        29.81F
6HR MIN TEMP:  53; 6HR MAX TEMP:  64;

NEBRASKA CITY  CLEAR     52  29  40 SW14      29.79F
PLATTSMOUTH    PTCLDY    53  31  42 S15       29.77S
$$

NEZ044-045-051>053-067-220700-
OMAHA AREA

CITY           SKY/WX    TMP DP  RH WIND       PRES   REMARKS
OMAHA EPPLEY   CLEAR     47  36  65 SE14      29.76F
6HR MIN TEMP:  46; 6HR MAX TEMP:  67;

BLAIR          CLEAR     52  37  56 S12       29.74S
FREMONT        CLEAR     56  33  42 S15       29.73F
MILLARD        CLEAR     55  37  51 SE5       29.76F
PLATTSMOUTH    PTCLDY    53  31  42 S15       29.77S
WAHOO          FAIR      54  33  45 S12       29.75S
$$




USA.gov is the U.S. government's official web portal to all federal, state and local government web resources and services.